Location: *
(49.7115°N, 15.0136°E)
Time: 05:09:40
(UTC+00:00)

CZ-2D R/B - Pass Details

Date: 27 February 2020
Orbit: 521 x 539 km, 97.4° (Epoch: 29 March)

Event Time Altitude Azimuth Distance (km) Brightness Sun altitude
Rises 17:37:11 0° 169° (S) 2,685 6.7 -10.3°
Reaches altitude 10° 17:39:18 10° 171° (S) 1,798 5.9 -10.6°
Maximum altitude 17:43:11 77° 258° (WSW) 560 3.5 -11.3°
Drops below altitude 10° 17:47:06 10° 344° (NNW) 1,809 6.2 -11.9°
Sets 17:49:13 0° 346° (NNW) 2,703 7.1 -12.3°
